Torna al catalogo

STARLINK-35565

AttivoComunicazioniVLEO
NORAD 66803·PAYLOAD·🇺🇸 United States

Lanciato Dec 1, 2025 da Cape Canaveral Space Force Station

Loading…

Prossimi Passaggi (prossime 24 ore)

TLE

AggiornatoSource: CelesTrak SupGP

Epoca: Sep 15, 2026, 02:38 UTC

1 66803C 25278N   26258.11020833  .00062775  00000+0  22741-2 0  2580
2 66803  43.0019 124.8870 0001603 275.9972 150.6745 15.27541971    14

Traccia STARLINK-35565 in tempo reale con AllMySat

Download on the App Store